Location: Table Mountain
(47.2500°N, 120.5778°W)
Time: 16:01:11
(UTC-07:00)

ISS - Pass Details

Date: 07 October 2017
Orbit: 401 x 408 km, 51.6° (Epoch: 23 October)

Event Time Altitude Azimuth Distance (km) Brightness Sun altitude
Rises 19:09:44 0° 285° (WNW) 2,320 1.8 -7.7°
Reaches altitude 10° 19:11:55 10° 294° (WNW) 1,462 0.2 -8.1°
Maximum altitude 19:14:59 37° 4° (N) 655 -2.8 -8.6°
Enters shadow 19:17:49 12° 72° (ENE) 1,367 -1.7 -9.1°
